Tracking 25710 objects as of 6-Jul-2022
HD Live streaming from Space Station
objects crossing your sky now

FENGYUN 1C DEB

Track FENGYUN 1C DEB now!
10-day predictions


NORAD ID: 31782
Int'l Code: 1999-025CGH
Perigee: 733.1 km
Apogee: 858.9 km
Inclination: 98.8 °
Period: 100.6 minutes
Semi major axis: 7167 km
RCS: 0.0103 m2 (small)
Launch date: May 10, 1999
Source: People's Republic of China (PRC)
Launch site: Taiyaun Space Center, China (TSC)

Note: This is SATELLITE DEBRIS
aabbcc
Your satellite tracking list
Your tracking list is empty




NASA's NSSDC Master Catalog

Two Line Element Set (TLE):
1 31782U 99025CGH 22187.13977029  .00000383  00000-0  15627-3 0  9992
2 31782  98.7594 307.3653 0087757  80.5332  42.9740 14.30846805788049
Source of the keplerian elements: AFSPC